SIA179 YBTL-YBAS

Flight info

Callsign SIA179
Flight time 2h 7m
Altitude 34000
Route WISKA J184 MA J64 ANZAC
Aircraft B738/M-SDE2E3FGHIRWXY/LB1

Departure

Time 2026-04-19 08:35
Airport Townsville Airport / RAAF Base Townsville (YBTL)

Arrival

Time 2026-04-19 10:42
Airport Alice Springs Airport (YBAS)
Time Latitude Longitude Altitude Speed Heading
2026-04-19 08:08 -19.25650 146.76968 21 ft 0 kts 105°
2026-04-19 08:08 -19.25570 146.76996 23 ft 0 kts 105°
2026-04-19 08:28 -19.25565 146.76977 21 ft 4 kts 113°
2026-04-19 08:28 -19.25551 146.76953 21 ft 4 kts 136°
2026-04-19 08:28 -19.25530 146.76941 21 ft 4 kts 182°
2026-04-19 08:29 -19.25518 146.76943 21 ft 1 kts 195°
2026-04-19 08:31 -19.25522 146.76942 22 ft 3 kts 195°
2026-04-19 08:31 -19.25559 146.76931 23 ft 8 kts 195°
2026-04-19 08:32 -19.25622 146.76911 23 ft 10 kts 205°
2026-04-19 08:32 -19.25644 146.76846 21 ft 11 kts 293°
2026-04-19 08:32 -19.25621 146.76767 21 ft 12 kts 265°
2026-04-19 08:32 -19.25676 146.76705 22 ft 13 kts 208°
2026-04-19 08:33 -19.25756 146.76660 22 ft 13 kts 208°
2026-04-19 08:33 -19.25831 146.76614 21 ft 12 kts 221°
2026-04-19 08:33 -19.25843 146.76542 22 ft 9 kts 288°
2026-04-19 08:33 -19.25815 146.76490 22 ft 6 kts 338°
2026-04-19 08:34 -19.25760 146.76506 22 ft 22 kts 23°
2026-04-19 08:34 -19.25404 146.76675 20 ft 89 kts 25°
2026-04-19 08:34 -19.24649 146.77034 22 ft 146 kts 25°
2026-04-19 08:34 -19.23615 146.77574 242 ft 174 kts 28°
2026-04-19 08:35 -19.22510 146.78123 926 ft 175 kts 24°
2026-04-19 08:35 -19.21349 146.78507 1621 ft 181 kts 19°
2026-04-19 08:35 -19.20051 146.78910 1857 ft 207 kts 14°
2026-04-19 08:35 -19.18548 146.78767 2028 ft 231 kts 343°
2026-04-19 08:36 -19.16999 146.78125 2349 ft 244 kts 340°
2026-04-19 08:36 -19.15429 146.77433 2847 ft 250 kts 340°
2026-04-19 08:36 -19.13813 146.76737 3569 ft 250 kts 340°
2026-04-19 08:36 -19.12204 146.76006 4273 ft 255 kts 331°
2026-04-19 08:37 -19.10953 146.74642 4736 ft 271 kts 296°
2026-04-19 08:37 -19.10587 146.72633 4941 ft 293 kts 262°
2026-04-19 08:37 -19.11309 146.70572 5159 ft 310 kts 238°
2026-04-19 08:37 -19.12326 146.68459 5337 ft 332 kts 242°
2026-04-19 08:38 -19.13463 146.66252 5495 ft 351 kts 238°
2026-04-19 08:38 -19.14780 146.64013 5809 ft 362 kts 229°
2026-04-19 08:38 -19.16702 146.62320 6349 ft 361 kts 206°
2026-04-19 08:38 -19.19053 146.61470 6989 ft 357 kts 187°
2026-04-19 08:39 -19.21525 146.61461 7508 ft 356 kts 169°
2026-04-19 08:39 -19.23968 146.61951 8020 ft 360 kts 169°
2026-04-19 08:39 -19.26487 146.61914 8472 ft 368 kts 191°
2026-04-19 08:39 -19.28849 146.60842 8995 ft 374 kts 213°
2026-04-19 08:40 -19.30714 146.58911 9519 ft 379 kts 234°
2026-04-19 08:40 -19.31933 146.56430 10090 ft 381 kts 245°
2026-04-19 08:40 -19.32976 146.53881 10647 ft 381 kts 246°
2026-04-19 08:40 -19.34019 146.51298 11205 ft 381 kts 246°
2026-04-19 08:41 -19.35084 146.48719 11772 ft 381 kts 245°
2026-04-19 08:41 -19.36162 146.46156 12357 ft 381 kts 245°
2026-04-19 08:41 -19.37248 146.43589 12920 ft 382 kts 246°
2026-04-19 08:41 -19.38172 146.40945 13426 ft 384 kts 252°
2026-04-19 08:42 -19.38912 146.38214 13918 ft 387 kts 255°
2026-04-19 08:42 -19.39588 146.35487 14433 ft 388 kts 255°
2026-04-19 08:42 -19.40272 146.32717 14917 ft 390 kts 255°
2026-04-19 08:42 -19.40977 146.29931 15427 ft 392 kts 255°
2026-04-19 08:43 -19.41698 146.27145 15935 ft 393 kts 255°
2026-04-19 08:43 -19.42434 146.24351 16428 ft 394 kts 255°
2026-04-19 08:43 -19.43181 146.21535 16892 ft 396 kts 255°
2026-04-19 08:43 -19.43933 146.18709 17324 ft 399 kts 255°
2026-04-19 08:44 -19.44687 146.15877 17782 ft 400 kts 255°
2026-04-19 08:44 -19.45443 146.13038 18210 ft 401 kts 255°
2026-04-19 08:44 -19.46201 146.10186 18599 ft 403 kts 255°
2026-04-19 08:44 -19.46962 146.07317 18983 ft 406 kts 255°
2026-04-19 08:45 -19.47650 146.04417 19375 ft 407 kts 259°
2026-04-19 08:45 -19.48094 146.01489 19740 ft 408 kts 263°
2026-04-19 08:45 -19.48432 145.98493 20090 ft 410 kts 264°
2026-04-19 08:45 -19.48738 145.95482 20410 ft 411 kts 264°
2026-04-19 08:46 -19.49050 145.92461 20715 ft 414 kts 264°
2026-04-19 08:46 -19.49381 145.89418 21034 ft 415 kts 263°
2026-04-19 08:46 -19.49726 145.86377 21352 ft 416 kts 263°
2026-04-19 08:46 -19.50084 145.83324 21652 ft 418 kts 263°
2026-04-19 08:47 -19.50445 145.80295 21933 ft 419 kts 263°
2026-04-19 08:47 -19.50813 145.77222 22191 ft 421 kts 263°
2026-04-19 08:47 -19.51184 145.74144 22455 ft 422 kts 263°
2026-04-19 08:47 -19.51557 145.71040 22723 ft 423 kts 263°
2026-04-19 08:48 -19.51928 145.67944 22960 ft 425 kts 263°
2026-04-19 08:48 -19.52174 145.65881 23120 ft 426 kts 263°
2026-04-19 08:48 -19.52547 145.62760 23353 ft 427 kts 263°
2026-04-19 08:48 -19.52920 145.59629 23587 ft 428 kts 263°
2026-04-19 08:49 -19.53293 145.56496 23800 ft 429 kts 263°
2026-04-19 08:49 -19.53666 145.53353 24009 ft 430 kts 263°
2026-04-19 08:49 -19.54040 145.50202 24216 ft 432 kts 263°
2026-04-19 08:49 -19.54416 145.47030 24379 ft 434 kts 263°
2026-04-19 08:50 -19.54792 145.43848 24568 ft 435 kts 263°
2026-04-19 08:50 -19.55167 145.40668 24804 ft 435 kts 263°
2026-04-19 08:50 -19.55544 145.37475 24967 ft 436 kts 263°
2026-04-19 08:50 -19.55920 145.34278 25102 ft 438 kts 263°
2026-04-19 08:51 -19.56293 145.31105 25267 ft 439 kts 263°
2026-04-19 08:51 -19.56672 145.27875 25450 ft 440 kts 263°
2026-04-19 08:51 -19.57049 145.24647 25687 ft 440 kts 263°
2026-04-19 08:51 -19.57430 145.21419 25873 ft 441 kts 262°
2026-04-19 08:52 -19.57971 145.18214 25986 ft 443 kts 258°
2026-04-19 08:52 -19.58627 145.15010 26127 ft 444 kts 258°
2026-04-19 08:52 -19.59300 145.11847 26300 ft 445 kts 258°
2026-04-19 08:52 -19.59986 145.08651 26464 ft 446 kts 258°
2026-04-19 08:53 -19.60672 145.05432 26622 ft 447 kts 258°
2026-04-19 08:53 -19.61352 145.02210 26761 ft 448 kts 258°
2026-04-19 08:53 -19.62028 144.98980 26898 ft 449 kts 258°
2026-04-19 08:53 -19.62702 144.95748 27028 ft 450 kts 258°
2026-04-19 08:54 -19.63375 144.92504 27170 ft 451 kts 258°
2026-04-19 08:54 -19.64047 144.89254 27346 ft 450 kts 258°
2026-04-19 08:54 -19.64715 144.86008 27542 ft 450 kts 258°
2026-04-19 08:54 -19.65383 144.82764 27763 ft 449 kts 258°
2026-04-19 08:55 -19.66048 144.79532 27982 ft 448 kts 258°
2026-04-19 08:55 -19.66710 144.76310 28241 ft 446 kts 258°
2026-04-19 08:55 -19.67371 144.73096 28472 ft 446 kts 258°
2026-04-19 08:55 -19.68022 144.69927 28664 ft 446 kts 258°
2026-04-19 08:56 -19.68681 144.66712 28883 ft 445 kts 258°
2026-04-19 08:56 -19.69337 144.63508 29181 ft 442 kts 258°
2026-04-19 08:56 -19.69988 144.60327 29494 ft 440 kts 258°
2026-04-19 08:56 -19.70639 144.57146 29704 ft 440 kts 258°
2026-04-19 08:57 -19.71286 144.53976 29918 ft 439 kts 258°
2026-04-19 08:57 -19.71934 144.50802 30159 ft 438 kts 258°
2026-04-19 08:57 -19.72572 144.47674 30387 ft 438 kts 258°
2026-04-19 08:57 -19.73215 144.44518 30630 ft 437 kts 258°
2026-04-19 08:58 -19.73855 144.41375 30906 ft 435 kts 258°
2026-04-19 08:58 -19.74492 144.38245 31198 ft 433 kts 258°
2026-04-19 08:58 -19.75129 144.35113 31442 ft 433 kts 258°
2026-04-19 08:58 -19.75762 144.31993 31694 ft 432 kts 258°
2026-04-19 08:59 -19.76393 144.28878 31929 ft 431 kts 258°
2026-04-19 08:59 -19.77021 144.25768 32143 ft 430 kts 258°
2026-04-19 08:59 -19.77648 144.22666 32404 ft 429 kts 258°
2026-04-19 08:59 -19.78266 144.19614 32689 ft 427 kts 258°
2026-04-19 09:00 -19.78897 144.16498 32956 ft 425 kts 258°
2026-04-19 09:00 -19.79509 144.13465 33209 ft 424 kts 258°
2026-04-19 09:00 -19.80127 144.10409 33453 ft 423 kts 258°
2026-04-19 09:00 -19.80744 144.07355 33633 ft 424 kts 258°
2026-04-19 09:01 -19.81361 144.04295 33850 ft 423 kts 258°
2026-04-19 09:01 -19.81974 144.01242 34025 ft 423 kts 258°
2026-04-19 09:01 -19.83203 143.95120 34009 ft 423 kts 258°
2026-04-19 09:02 -19.84418 143.89061 34020 ft 420 kts 258°
2026-04-19 09:02 -19.85629 143.83007 34020 ft 417 kts 258°
2026-04-19 09:03 -19.86831 143.76986 34009 ft 416 kts 258°
2026-04-19 09:03 -19.88030 143.70973 34010 ft 416 kts 258°
2026-04-19 09:04 -19.89228 143.64950 34013 ft 416 kts 258°
2026-04-19 09:04 -19.90428 143.58917 34011 ft 418 kts 258°
2026-04-19 09:05 -19.91625 143.52879 34011 ft 420 kts 258°
2026-04-19 09:05 -19.92832 143.46781 34011 ft 423 kts 258°
2026-04-19 09:06 -19.94041 143.40655 34011 ft 424 kts 258°
2026-04-19 09:06 -19.95253 143.34506 34007 ft 425 kts 258°
2026-04-19 09:07 -19.96468 143.28336 34009 ft 426 kts 259°
2026-04-19 09:07 -19.97673 143.22200 34005 ft 427 kts 259°
2026-04-19 09:08 -19.98885 143.16018 34005 ft 426 kts 259°
2026-04-19 09:08 -20.00093 143.09848 34009 ft 426 kts 259°
2026-04-19 09:09 -20.01296 143.03685 34013 ft 423 kts 259°
2026-04-19 09:09 -20.02480 142.97604 34005 ft 421 kts 259°
2026-04-19 09:10 -20.03673 142.91478 34017 ft 418 kts 260°
2026-04-19 09:10 -20.04837 142.85482 34005 ft 415 kts 260°
2026-04-19 09:11 -20.05997 142.79495 34002 ft 412 kts 260°
2026-04-19 09:11 -20.07146 142.73552 34006 ft 409 kts 260°
2026-04-19 09:12 -20.08288 142.67638 34009 ft 407 kts 260°
2026-04-19 09:12 -20.09422 142.61748 34009 ft 406 kts 260°
2026-04-19 09:13 -20.10547 142.55901 34010 ft 406 kts 260°
2026-04-19 09:13 -20.11678 142.49998 34011 ft 407 kts 260°
2026-04-19 09:14 -20.12812 142.44080 34010 ft 409 kts 260°
2026-04-19 09:14 -20.13950 142.38128 34010 ft 411 kts 260°
2026-04-19 09:15 -20.15083 142.32193 34012 ft 412 kts 260°
2026-04-19 09:16 -20.16797 142.23195 34019 ft 414 kts 260°
2026-04-19 09:16 -20.17940 142.17172 34021 ft 414 kts 260°
2026-04-19 09:17 -20.19082 142.11147 34021 ft 415 kts 260°
2026-04-19 09:17 -20.20216 142.05161 34021 ft 414 kts 260°
2026-04-19 09:18 -20.21350 141.99148 34018 ft 414 kts 260°
2026-04-19 09:18 -20.22482 141.93140 34017 ft 413 kts 260°
2026-04-19 09:19 -20.23614 141.87125 34020 ft 413 kts 260°
2026-04-19 09:19 -20.24738 141.81135 34018 ft 412 kts 260°
2026-04-19 09:20 -20.25851 141.75197 34017 ft 411 kts 260°
2026-04-19 09:20 -20.26969 141.69219 34020 ft 411 kts 260°
2026-04-19 09:21 -20.28086 141.63229 34017 ft 412 kts 261°
2026-04-19 09:21 -20.29200 141.57251 34018 ft 411 kts 261°
2026-04-19 09:22 -20.30304 141.51313 34020 ft 411 kts 261°
2026-04-19 09:22 -20.31414 141.45335 34016 ft 410 kts 260°
2026-04-19 09:23 -20.32519 141.39365 34019 ft 410 kts 260°
2026-04-19 09:23 -20.33623 141.33389 34016 ft 410 kts 261°
2026-04-19 09:24 -20.34718 141.27455 34015 ft 411 kts 260°
2026-04-19 09:24 -20.35818 141.21478 34024 ft 411 kts 261°
2026-04-19 09:25 -20.36911 141.15490 34016 ft 412 kts 261°
2026-04-19 09:25 -20.38003 141.09498 34019 ft 412 kts 261°
2026-04-19 09:26 -20.39093 141.03500 34019 ft 412 kts 260°
2026-04-19 09:26 -20.40178 140.97524 34012 ft 413 kts 260°
2026-04-19 09:27 -20.41268 140.91509 34020 ft 413 kts 260°
2026-04-19 09:27 -20.42357 140.85482 34018 ft 414 kts 260°
2026-04-19 09:28 -20.43443 140.79454 34013 ft 414 kts 261°
2026-04-19 09:28 -20.44530 140.73417 34017 ft 414 kts 260°
2026-04-19 09:29 -20.45603 140.67411 34013 ft 414 kts 265°
2026-04-19 09:29 -20.45936 140.61259 34023 ft 412 kts 266°
2026-04-19 09:30 -20.46866 140.55265 34018 ft 413 kts 262°
2026-04-19 09:30 -20.48023 140.49269 34022 ft 412 kts 262°
2026-04-19 09:31 -20.49180 140.43255 34020 ft 413 kts 262°
2026-04-19 09:31 -20.50300 140.37271 34025 ft 414 kts 262°
2026-04-19 09:32 -20.51415 140.31227 34021 ft 416 kts 262°
2026-04-19 09:32 -20.52529 140.25167 34023 ft 417 kts 262°
2026-04-19 09:33 -20.53644 140.19089 34018 ft 418 kts 262°
2026-04-19 09:33 -20.54759 140.12997 34023 ft 419 kts 262°
2026-04-19 09:34 -20.55874 140.06893 34022 ft 419 kts 262°
2026-04-19 09:34 -20.56989 140.00777 34019 ft 420 kts 262°
2026-04-19 09:35 -20.58096 139.94702 34014 ft 419 kts 262°
2026-04-19 09:35 -20.59208 139.88586 34019 ft 419 kts 262°
2026-04-19 09:36 -20.60320 139.82474 34021 ft 418 kts 262°
2026-04-19 09:36 -20.61427 139.76372 34015 ft 418 kts 262°
2026-04-19 09:37 -20.62532 139.70283 34017 ft 417 kts 262°
2026-04-19 09:37 -20.63631 139.64242 34016 ft 417 kts 262°
2026-04-19 09:38 -20.64557 139.59197 34020 ft 416 kts 262°
2026-04-19 09:38 -20.65645 139.53130 34022 ft 416 kts 262°
2026-04-19 09:39 -20.67386 139.47232 34007 ft 418 kts 250°
2026-04-19 09:39 -20.70815 139.40980 34015 ft 420 kts 244°
2026-04-19 09:40 -20.73408 139.36548 34033 ft 420 kts 243°
2026-04-19 09:40 -20.76510 139.31261 34042 ft 420 kts 243°
2026-04-19 09:41 -20.79592 139.26005 34049 ft 420 kts 243°
2026-04-19 09:41 -20.82693 139.20704 34046 ft 421 kts 244°
2026-04-19 09:42 -20.85797 139.15392 34047 ft 421 kts 244°
2026-04-19 09:42 -20.88902 139.10072 34048 ft 421 kts 244°
2026-04-19 09:43 -20.92008 139.04749 34048 ft 422 kts 244°
2026-04-19 09:43 -20.95111 138.99421 34048 ft 422 kts 244°
2026-04-19 09:44 -20.98193 138.94126 34044 ft 422 kts 244°
2026-04-19 09:44 -21.01290 138.88801 34046 ft 421 kts 244°
2026-04-19 09:45 -21.04390 138.83468 34046 ft 420 kts 244°
2026-04-19 09:45 -21.07476 138.78152 34046 ft 420 kts 244°
2026-04-19 09:46 -21.10541 138.72866 34046 ft 420 kts 244°
2026-04-19 09:46 -21.13625 138.67544 34045 ft 419 kts 244°
2026-04-19 09:47 -21.16700 138.62229 34055 ft 419 kts 244°
2026-04-19 09:47 -21.19770 138.56922 34053 ft 419 kts 244°
2026-04-19 09:48 -21.22835 138.51618 34055 ft 418 kts 244°
2026-04-19 09:48 -21.25880 138.46344 34059 ft 418 kts 244°
2026-04-19 09:49 -21.28944 138.41033 34054 ft 418 kts 244°
2026-04-19 09:49 -21.32006 138.35722 34057 ft 418 kts 244°
2026-04-19 09:50 -21.35043 138.30448 34055 ft 418 kts 244°
2026-04-19 09:50 -21.38100 138.25138 34055 ft 418 kts 244°
2026-04-19 09:51 -21.41155 138.19826 34057 ft 417 kts 244°
2026-04-19 09:51 -21.44201 138.14525 34054 ft 417 kts 244°
2026-04-19 09:52 -21.47245 138.09229 34055 ft 417 kts 244°
2026-04-19 09:52 -21.50293 138.03925 34056 ft 417 kts 244°
2026-04-19 09:53 -21.53342 137.98626 34052 ft 417 kts 244°
2026-04-19 09:53 -21.56390 137.93337 34056 ft 416 kts 245°
2026-04-19 09:54 -21.59394 137.88068 34056 ft 416 kts 245°
2026-04-19 09:54 -21.62387 137.82742 34064 ft 416 kts 245°
2026-04-19 09:55 -21.65386 137.77414 34065 ft 415 kts 245°
2026-04-19 09:55 -21.68374 137.72140 34065 ft 415 kts 245°
2026-04-19 09:56 -21.71392 137.66829 34065 ft 416 kts 245°
2026-04-19 09:56 -21.74413 137.61515 34066 ft 416 kts 245°
2026-04-19 09:57 -21.77436 137.56192 34065 ft 416 kts 245°
2026-04-19 09:57 -21.80455 137.50869 34066 ft 417 kts 245°
2026-04-19 09:58 -21.83476 137.45536 34065 ft 417 kts 245°
2026-04-19 09:58 -21.86471 137.40246 34073 ft 416 kts 245°
2026-04-19 09:59 -21.89483 137.34917 34071 ft 416 kts 245°
2026-04-19 09:59 -21.92490 137.29594 34076 ft 416 kts 245°
2026-04-19 10:00 -21.95501 137.24260 34076 ft 416 kts 245°
2026-04-19 10:00 -21.98511 137.18924 34079 ft 416 kts 245°
2026-04-19 10:01 -22.01520 137.13582 34085 ft 416 kts 245°
2026-04-19 10:01 -22.04505 137.08286 34078 ft 415 kts 245°
2026-04-19 10:02 -22.07497 137.02965 34077 ft 413 kts 245°
2026-04-19 10:02 -22.10478 136.97660 34084 ft 412 kts 245°
2026-04-19 10:03 -22.13444 136.92378 34088 ft 411 kts 245°
2026-04-19 10:03 -22.16388 136.87135 34093 ft 410 kts 245°
2026-04-19 10:04 -22.19343 136.81868 34091 ft 409 kts 245°
2026-04-19 10:04 -22.22292 136.76616 34096 ft 409 kts 245°
2026-04-19 10:05 -22.25248 136.71363 34101 ft 409 kts 245°
2026-04-19 10:05 -22.28187 136.66128 34102 ft 410 kts 245°
2026-04-19 10:06 -22.31121 136.60838 34103 ft 410 kts 246°
2026-04-19 10:06 -22.34034 136.55530 34101 ft 411 kts 245°
2026-04-19 10:07 -22.36966 136.50223 34102 ft 412 kts 245°
2026-04-19 10:07 -22.39920 136.44904 34113 ft 413 kts 245°
2026-04-19 10:08 -22.42865 136.39610 34110 ft 414 kts 245°
2026-04-19 10:08 -22.45832 136.34273 34113 ft 414 kts 245°
2026-04-19 10:09 -22.48798 136.28928 34110 ft 414 kts 245°
2026-04-19 10:09 -22.51769 136.23573 34111 ft 414 kts 245°
2026-04-19 10:10 -22.54732 136.18227 34121 ft 414 kts 245°
2026-04-19 10:10 -22.57670 136.12919 34135 ft 414 kts 245°
2026-04-19 10:11 -22.60626 136.07579 34141 ft 413 kts 245°
2026-04-19 10:11 -22.63577 136.02246 34139 ft 412 kts 245°
2026-04-19 10:12 -22.66529 135.96911 34141 ft 412 kts 245°
2026-04-19 10:12 -22.69475 135.91599 34146 ft 411 kts 245°
2026-04-19 10:13 -22.72394 135.86327 34151 ft 410 kts 246°
2026-04-19 10:13 -22.75217 135.80975 34159 ft 407 kts 250°
2026-04-19 10:14 -22.77517 135.75380 34145 ft 406 kts 252°
2026-04-19 10:14 -22.79754 135.69771 34155 ft 405 kts 252°
2026-04-19 10:15 -22.82027 135.64181 34160 ft 405 kts 251°
2026-04-19 10:15 -22.84321 135.58610 34158 ft 405 kts 251°
2026-04-19 10:16 -22.86627 135.53028 34158 ft 405 kts 251°
2026-04-19 10:16 -22.88933 135.47449 34156 ft 405 kts 251°
2026-04-19 10:17 -22.91216 135.41915 34164 ft 404 kts 251°
2026-04-19 10:17 -22.93515 135.36336 34165 ft 404 kts 251°
2026-04-19 10:18 -22.95811 135.30759 34170 ft 404 kts 252°
2026-04-19 10:18 -22.98101 135.25180 33618 ft 408 kts 251°
2026-04-19 10:19 -23.00389 135.19626 32579 ft 398 kts 251°
2026-04-19 10:19 -23.01512 135.16897 32064 ft 394 kts 251°
2026-04-19 10:19 -23.02622 135.14197 31566 ft 390 kts 251°
2026-04-19 10:19 -23.03717 135.11524 31069 ft 386 kts 251°
2026-04-19 10:20 -23.04802 135.08874 30572 ft 382 kts 251°
2026-04-19 10:20 -23.05872 135.06259 30084 ft 377 kts 251°
2026-04-19 10:20 -23.06931 135.03669 29606 ft 373 kts 251°
2026-04-19 10:20 -23.07977 135.01109 29105 ft 369 kts 251°
2026-04-19 10:21 -23.09012 134.98573 28621 ft 365 kts 251°
2026-04-19 10:21 -23.10036 134.96064 28130 ft 362 kts 251°
2026-04-19 10:21 -23.11050 134.93577 27651 ft 358 kts 251°
2026-04-19 10:21 -23.12054 134.91110 27162 ft 355 kts 251°
2026-04-19 10:22 -23.13050 134.88665 26689 ft 352 kts 251°
2026-04-19 10:22 -23.14035 134.86244 26224 ft 350 kts 251°
2026-04-19 10:22 -23.15014 134.83834 25760 ft 348 kts 251°
2026-04-19 10:22 -23.15991 134.81431 25290 ft 347 kts 250°
2026-04-19 10:23 -23.16964 134.79038 24824 ft 345 kts 250°
2026-04-19 10:23 -23.17924 134.76678 24373 ft 347 kts 250°
2026-04-19 10:23 -23.18913 134.74243 23915 ft 357 kts 250°
2026-04-19 10:23 -23.19930 134.71743 23427 ft 363 kts 250°
2026-04-19 10:24 -23.20953 134.69236 22933 ft 361 kts 249°
2026-04-19 10:24 -23.21967 134.66748 22450 ft 358 kts 249°
2026-04-19 10:24 -23.22974 134.64272 21984 ft 356 kts 249°
2026-04-19 10:24 -23.23968 134.61821 21503 ft 353 kts 249°
2026-04-19 10:25 -23.24956 134.59384 21045 ft 351 kts 249°
2026-04-19 10:25 -23.25935 134.56968 20595 ft 349 kts 249°
2026-04-19 10:25 -23.26909 134.54559 20137 ft 346 kts 249°
2026-04-19 10:25 -23.27864 134.52200 19699 ft 344 kts 249°
2026-04-19 10:26 -23.28824 134.49825 19262 ft 341 kts 248°
2026-04-19 10:26 -23.29780 134.47459 18815 ft 340 kts 248°
2026-04-19 10:26 -23.30732 134.45107 18386 ft 338 kts 248°
2026-04-19 10:26 -23.31673 134.42776 17956 ft 335 kts 248°
2026-04-19 10:27 -23.32293 134.41240 17675 ft 334 kts 248°
2026-04-19 10:27 -23.33526 134.38185 17112 ft 331 kts 248°
2026-04-19 10:27 -23.34150 134.36637 16825 ft 330 kts 248°
2026-04-19 10:27 -23.35068 134.34357 16418 ft 327 kts 248°
2026-04-19 10:28 -23.35969 134.32119 16013 ft 326 kts 248°
2026-04-19 10:28 -23.36876 134.29865 15598 ft 325 kts 247°
2026-04-19 10:28 -23.37780 134.27617 15190 ft 323 kts 247°
2026-04-19 10:28 -23.38683 134.25374 14796 ft 324 kts 247°
2026-04-19 10:29 -23.39592 134.23117 14383 ft 327 kts 247°
2026-04-19 10:29 -23.40513 134.20833 13981 ft 333 kts 246°
2026-04-19 10:29 -23.41455 134.18501 13557 ft 339 kts 246°
2026-04-19 10:29 -23.42404 134.16148 13125 ft 338 kts 246°
2026-04-19 10:30 -23.43346 134.13807 12700 ft 336 kts 246°
2026-04-19 10:30 -23.44282 134.11480 12280 ft 335 kts 245°
2026-04-19 10:30 -23.45213 134.09162 11863 ft 333 kts 245°
2026-04-19 10:30 -23.46141 134.06850 11452 ft 332 kts 245°
2026-04-19 10:31 -23.47067 134.04546 11040 ft 330 kts 245°
2026-04-19 10:31 -23.47984 134.02265 10771 ft 325 kts 245°
2026-04-19 10:31 -23.48870 134.00057 10501 ft 320 kts 245°
2026-04-19 10:31 -23.49752 133.97863 10341 ft 311 kts 245°
2026-04-19 10:32 -23.50608 133.95731 10189 ft 303 kts 245°
2026-04-19 10:32 -23.51445 133.93651 10050 ft 295 kts 245°
2026-04-19 10:32 -23.52257 133.91619 9797 ft 291 kts 245°
2026-04-19 10:32 -23.53061 133.89594 9502 ft 289 kts 246°
2026-04-19 10:33 -23.53853 133.87588 9214 ft 287 kts 246°
2026-04-19 10:33 -23.54405 133.85509 8948 ft 288 kts 262°
2026-04-19 10:33 -23.54631 133.83343 8626 ft 287 kts 262°
2026-04-19 10:33 -23.54951 133.81228 8346 ft 283 kts 257°
2026-04-19 10:34 -23.55452 133.79163 8066 ft 280 kts 251°
2026-04-19 10:34 -23.56133 133.77185 7782 ft 277 kts 245°
2026-04-19 10:34 -23.56954 133.75307 7496 ft 273 kts 241°
2026-04-19 10:34 -23.57885 133.73523 7228 ft 269 kts 237°
2026-04-19 10:35 -23.58912 133.71842 6969 ft 265 kts 233°
2026-04-19 10:35 -23.60038 133.70265 6684 ft 263 kts 228°
2026-04-19 10:35 -23.61261 133.68805 6455 ft 258 kts 224°
2026-04-19 10:35 -23.62536 133.67482 6346 ft 248 kts 220°
2026-04-19 10:36 -23.63829 133.66327 6213 ft 238 kts 211°
2026-04-19 10:36 -23.65320 133.65843 6121 ft 215 kts 174°
2026-04-19 10:36 -23.66617 133.66409 6054 ft 196 kts 143°
2026-04-19 10:36 -23.67634 133.67408 6005 ft 198 kts 139°
2026-04-19 10:37 -23.68576 133.68505 5887 ft 194 kts 134°
2026-04-19 10:37 -23.69421 133.69633 5790 ft 195 kts 133°
2026-04-19 10:37 -23.70215 133.70828 5574 ft 193 kts 128°
2026-04-19 10:37 -23.70922 133.72062 5318 ft 189 kts 126°
2026-04-19 10:38 -23.71582 133.73287 5083 ft 185 kts 126°
2026-04-19 10:38 -23.72215 133.74480 4843 ft 182 kts 125°
2026-04-19 10:38 -23.72836 133.75644 4595 ft 172 kts 126°
2026-04-19 10:38 -23.73442 133.76779 4379 ft 177 kts 125°
2026-04-19 10:39 -23.74047 133.77927 4155 ft 172 kts 126°
2026-04-19 10:39 -23.74637 133.79040 3921 ft 167 kts 126°
2026-04-19 10:39 -23.75212 133.80118 3696 ft 161 kts 126°
2026-04-19 10:39 -23.75767 133.81164 3499 ft 159 kts 126°
2026-04-19 10:40 -23.76325 133.82220 3302 ft 162 kts 126°
2026-04-19 10:40 -23.76905 133.83302 3058 ft 166 kts 126°
2026-04-19 10:40 -23.77476 133.84388 2826 ft 164 kts 126°
2026-04-19 10:40 -23.78024 133.85447 2609 ft 160 kts 123°
2026-04-19 10:41 -23.78611 133.86465 2354 ft 160 kts 128°
2026-04-19 10:41 -23.79141 133.87504 2120 ft 154 kts 128°
2026-04-19 10:41 -23.79639 133.88507 2037 ft 148 kts 117°
2026-04-19 10:41 -23.80156 133.89441 1799 ft 138 kts 120°
2026-04-19 10:42 -23.80573 133.90195 1790 ft 85 kts 121°
2026-04-19 10:42 -23.80755 133.90555 1787 ft 23 kts 118°
2026-04-19 10:42 -23.80767 133.90585 1786 ft 0 kts 108°
2026-04-19 10:42 -23.80773 133.90613 1786 ft 10 kts 101°
2026-04-19 10:43 -23.80800 133.90625 1785 ft 3 kts 240°
2026-04-19 10:43 -23.80799 133.90609 1786 ft 4 kts 282°
2026-04-19 10:43 -23.80765 133.90541 1786 ft 15 kts 302°
2026-04-19 10:43 -23.80704 133.90440 1786 ft 16 kts 303°
2026-04-19 10:44 -23.80647 133.90346 1787 ft 13 kts 303°
2026-04-19 10:44 -23.80603 133.90268 1789 ft 11 kts 301°
2026-04-19 10:44 -23.80562 133.90193 1789 ft 13 kts 298°
2026-04-19 10:44 -23.80504 133.90083 1789 ft 20 kts 301°
2026-04-19 10:45 -23.80452 133.89985 1789 ft 9 kts 302°
2026-04-19 10:45 -23.80407 133.89959 1790 ft 7 kts
2026-04-19 10:45 -23.80369 133.89975 1789 ft 5 kts 24°
2026-04-19 10:45 -23.80349 133.89987 1791 ft 2 kts 31°
2026-04-19 10:46 -23.80319 133.90009 1792 ft 8 kts 40°
2026-04-19 10:46 -23.80309 133.90066 1789 ft 8 kts 108°
2026-04-19 10:46 -23.80326 133.90115 1792 ft 6 kts 98°
2026-04-19 10:46 -23.80317 133.90155 1791 ft 5 kts 68°
2026-04-19 10:47 -23.80307 133.90177 1792 ft 0 kts 63°